Location: La Brionne
(46.1728°N, 1.7849°E)
Time: 22:58:26
(UTC+00:00)

Cosmos 1455 - Pass Details

Date: 16 June 2021
Orbit: 496 x 521 km, 82.5° (Epoch: 02 August)

Event Time Altitude Azimuth Distance (km) Brightness Sun altitude
Rises 21:56:11 0° 7° (N) 2,651 6.8 -15.5°
Reaches altitude 10° 21:59:05 10° 31° (NNE) 1,753 5.3 -15.8°
Maximum altitude 22:01:25 15° 68° (ENE) 1,437 4.4 -15.9°
Enters shadow 22:02:50 13° 93° (E) 1,556 4.3 -16.0°
